[[{"header":{"parameterUnit":"m.s-1","parameterCategory":1,"la1":30.2991,"la2":30.254,"lo1":-89.0895,"lo2":-89.0444,"dy":0.0017,"dx":0.0017,"nx":28,"ny":28,"refTime":"2024-05-03T03:00:00:Z","depth":0,"parameterNumber":2,"parameterNumberName":"U-component_of_WINDS"},"data":[0,0,0,0,0,0,0,0,0,0,0,0,0,0,0,0,0,0,0,0,0,0,0,0,0,0,0,0,0,0,0,0,0,0,0,0,0,0,0,0,0,0,0,0,0,0,0,0,0,0,0,0,0,0,0,0,0,0,-3.2792,-3.2792,0,-3.2731,-3.273,-3.2729,-3.2648,-3.2647,-3.2646,-3.2644,-3.2579,-3.2578,-3.2578,0,0,0,0,0,0,0,0,0,0,0,0,0,-3.2839,-3.2839,-3.2793,-3.2792,-3.2791,-3.2731,-3.273,-3.2729,-3.2649,-3.2647,-3.2645,-3.2644,-3.2579,-3.2578,-3.2577,0,0,0,0,0,0,0,0,0,0,0,0,0,-3.2802,-3.2838,-3.2793,-3.2744,-3.2739,-3.2731,-3.273,-3.2729,-3.2649,-3.2647,-3.2645,-3.2643,-3.2579,-3.2578,-3.2577,-3.2612,0,0,-3.2575,-3.2575,0,0,0,0,0,0,0,0,-3.2804,-3.28,-3.2752,-3.2747,-3.2741,-3.2695,-3.2722,-3.269,-3.2649,-3.2683,-3.2644,-3.2642,-3.2619,-3.2615,-3.2607,-3.2609,-3.2606,-3.2575,-3.2574,-3.2574,-3.2574,0,0,0,0,0,0,0,-3.2807,-3.2803,-3.2768,-3.2751,-3.2745,-3.2724,-3.2717,-3.2716,-3.2663,-3.268,-3.2674,-3.2668,-3.2616,-3.2608,-3.2605,-3.2605,-3.2575,-3.2574,-3.2574,-3.2573,-3.2631,-3.2633,0,0,0,0,0,0,-3.2817,-3.2805,-3.277,-3.2766,-3.2769,-3.2725,-3.2717,-3.2712,-3.2662,-3.2653,-3.2669,-3.2664,-3.2611,-3.2606,-3.2603,-3.2639,-3.2574,-3.2573,-3.2573,-3.2629,-3.2632,-3.2634,0,0,0,0,0,0,-3.2818,-3.2815,-3.2772,-3.2784,-3.2777,-3.2726,-3.2722,-3.2712,-3.2704,-3.2655,-3.2645,-3.2672,-3.2609,-3.2604,-3.261,-3.2635,-3.2573,-3.2572,-3.2627,-3.263,-3.2633,-3.2713,0,0,0,0,0,0,-3.282,-3.2816,-3.2829,-3.2785,-3.2777,-3.2782,-3.2723,-3.2712,-3.2703,-3.2696,-3.2654,-3.2645,-3.2607,-3.2612,-3.261,-3.2633,-3.2572,-3.2624,-3.2628,-3.2632,-3.2707,-3.2718,-3.2727,0,0,0,0,0,-3.2822,-3.2853,-3.283,-3.2826,-3.2792,-3.2784,-3.2779,-3.2735,-3.2706,-3.2718,-3.2686,-3.2647,-3.2634,-3.2613,-3.261,-3.2634,-3.2623,-3.2627,-3.2632,-3.2703,-3.2716,-3.2727,0,0,0,0,0,0,-3.29,-3.2847,-3.282,-3.2838,-3.2816,-3.277,-3.2784,-3.275,-3.2735,-3.2729,-3.2674,-3.2665,-3.2678,-3.2657,-3.2635,-3.2664,-3.2622,-3.2626,-3.2678,-3.2689,-3.2699,-3.2703,-3.2571,0,0,0,0,0,-3.292,-3.2918,-3.2871,-3.2892,-3.2882,-3.2836,-3.283,-3.2798,-3.2773,-3.2763,-3.2731,-3.2708,-3.2698,-3.2693,-3.2681,-3.2705,-3.2694,-3.2719,-3.2729,-3.2737,-3.2741,-3.2751,-3.2761,-3.2649,-3.2649,-3.2649,0,0,-3.296,-3.293,-3.2932,-3.2907,-3.2886,-3.2885,-3.2828,-3.2829,-3.2827,-3.2763,-3.2767,-3.2743,-3.2713,-3.2728,-3.2733,-3.2711,-3.277,-3.2743,-3.275,-3.2749,-3.2756,-3.2767,-3.2777,-3.2652,-3.2651,-3.2651,0,0,-3.3032,-3.301,-3.3024,-3.3005,-3.2974,-3.2943,-3.2947,-3.2906,-3.2888,-3.2892,-3.2844,-3.284,-3.2825,-3.2806,-3.2794,-3.2859,-3.2821,-3.2857,-3.2907,-3.2917,-3.2926,-3.2934,-3.2956,-3.2964,-3.2861,-3.2861,-3.2862,0,-3.3085,-3.3081,-3.3036,-3.304,-3.3029,-3.2972,-3.2986,-3.2969,-3.2937,-3.293,-3.2906,-3.2886,-3.2862,-3.2871,-3.2887,-3.288,-3.2881,-3.2861,-3.2929,-3.2936,-3.2942,-3.2962,-3.2971,-3.2866,-3.2865,-3.2865,-3.2864,0,-3.3148,-3.3146,-3.3161,-3.3132,-3.3124,-3.3133,-3.3087,-3.3084,-3.3054,-3.3025,-3.3029,-3.2999,-3.298,-3.298,-3.2949,-3.2984,-3.2971,-3.2939,-3.2895,-3.2958,-3.2976,-3.2984,-3.2872,-3.287,-3.2869,-3.2868,0,0,-3.3265,-3.3211,-3.3217,-3.3203,-3.3166,-3.3164,-3.317,-3.3152,-3.315,-3.313,-3.3133,-3.3122,-3.3092,-3.3078,-3.3046,-3.3055,-3.3107,-3.3021,-3.3019,-3.3037,-3.3142,-3.3166,-3.3176,-3.3083,-3.3084,-3.3085,-3.3144,0,-3.3329,-3.3337,-3.3296,-3.3314,-3.3312,-3.3258,-3.3264,-3.3241,-3.3215,-3.3208,-3.3179,-3.3171,-3.3133,-3.3124,-3.3131,-3.31,-3.3127,-3.3095,-3.3083,-3.3084,-3.3091,-3.3185,-3.321,-3.3267,-3.3151,-3.3152,-3.3153,0,-3.3403,-3.3388,-3.3406,-3.3368,-3.3365,-3.3371,-3.3351,-3.3347,-3.332,-3.33,-3.3286,-3.3248,-3.3251,-3.3211,-3.3212,-3.3191,-3.3184,-3.3168,-3.3169,-3.3165,-3.3121,-3.3182,-3.3284,-3.3292,-3.3164,-3.3163,-3.3162,0,-3.3485,-3.347,-3.3478,-3.3468,-3.3424,-3.3429,-3.3411,-3.3382,-3.3374,-3.3357,-3.3351,-3.3334,-3.3325,-3.3312,-3.3271,-3.3246,-3.3277,-3.3234,-3.3259,-3.3261,-3.3267,-3.3267,-3.3368,-3.3266,-3.3266,-3.3266,-3.3265,0,-3.3559,-3.3572,-3.3514,-3.352,-3.3532,-3.3486,-3.3499,-3.3476,-3.3451,-3.345,-3.3403,-3.3403,-3.3349,-3.3343,-3.3311,-3.3317,-3.3313,-3.3296,-3.3287,-3.3299,-3.3301,-3.3292,-3.3287,-3.3268,-3.3267,-3.3267,-3.3267,0,-3.3653,-3.3615,-3.362,-3.3579,-3.3569,-3.358,-3.3544,-3.3546,-3.3518,-3.3517,-3.3514,-3.3469,-3.3459,-3.3417,-3.3397,-3.3375,-3.3391,-3.3375,-3.34,-3.3394,-3.3421,-3.3419,-3.3519,-3.3529,-3.3423,-3.3424,-3.3425,0,-3.3702,-3.371,-3.367,-3.3667,-3.3651,-3.3646,-3.3637,-3.3592,-3.3585,-3.3556,-3.3562,-3.3548,-3.3535,-3.3522,-3.3486,-3.347,-3.3452,-3.3488,-3.3449,-3.3461,-3.345,-3.345,-3.345,-3.3496,-3.3497,-3.3499,-3.35,0,-3.3792,-3.3773,-3.3763,-3.3747,-3.3739,-3.3724,-3.3706,-3.3706,-3.3655,-3.365,-3.364,-3.363,-3.361,-3.3596,-3.3575,-3.3555,-3.3518,-3.3513,-3.3517,-3.3529,-3.3543,-3.3534,-3.3421,-3.351,-3.3509,-3.3508,-3.3508,-3.3507,-3.3863,-3.3868,-3.3841,-3.3832,-3.3814,-3.3798,-3.3799,-3.377,-3.3762,-3.3742,-3.3716,-3.3709,-3.3681,-3.3649,-3.3632,-3.3625,-3.3605,-3.3612,-3.3614,-3.3616,-3.3621,-3.3546,-3.3621,-3.3621,-3.3621,-3.362,-3.362,0,-3.395,-3.393,-3.3922,-3.3899,-3.3892,-3.386,-3.3838,-3.3834,-3.3829,-3.3807,-3.3795,-3.3783,-3.377,-3.3735,-3.3718,-3.3719,-3.3702,-3.3716,-3.3714,-3.371,-3.3641,-3.3638,-3.373,-3.373,-3.373,-3.373,-3.373,-3.373,-3.3994,-3.4001,-3.3979,-3.3976,-3.3955,-3.3949,-3.3939,-3.3924,-3.3906,-3.3896,-3.3885,-3.3862,-3.3834,-3.3815,-3.3802,-3.3791,-3.3786,-3.3806,-3.379,-3.3726,-3.3715,-3.3705,-3.3702,-3.3806,-3.3806,-3.3859,-3.386,-3.386]},{"header":{"parameterUnit":"m.s-1","parameterCategory":1,"la1":30.2991,"la2":30.254,"lo1":-89.0895,"lo2":-89.0444,"dy":0.0017,"dx":0.0017,"nx":28,"ny":28,"refTime":"2024-05-03T03:00:00:Z","depth":0,"parameterNumber":3,"parameterNumberName":"V-component_of_WINDS"},"data":[0,0,0,0,0,0,0,0,0,0,0,0,0,0,0,0,0,0,0,0,0,0,0,0,0,0,0,0,0,0,0,0,0,0,0,0,0,0,0,0,0,0,0,0,0,0,0,0,0,0,0,0,0,0,0,0,0,0,3.094,3.094,0,3.0955,3.0956,3.0956,3.0968,3.0968,3.0968,3.0968,3.0981,3.0981,3.0981,0,0,0,0,0,0,0,0,0,0,0,0,0,3.092,3.092,3.094,3.094,3.0941,3.0955,3.0956,3.0956,3.0968,3.0968,3.0968,3.0968,3.0981,3.0981,3.0981,0,0,0,0,0,0,0,0,0,0,0,0,0,3.0931,3.0921,3.094,3.0948,3.0949,3.0955,3.0956,3.0956,3.0968,3.0968,3.0968,3.0968,3.0981,3.0981,3.0981,3.0979,0,0,3.0982,3.0983,0,0,0,0,0,0,0,0,3.0931,3.0932,3.0947,3.0948,3.0949,3.096,3.0953,3.0964,3.0968,3.0961,3.0968,3.0969,3.0974,3.0975,3.0977,3.098,3.0981,3.0982,3.0983,3.0983,3.0983,0,0,0,0,0,0,0,3.093,3.0931,3.0946,3.0947,3.0948,3.0951,3.0953,3.0955,3.0966,3.0961,3.0962,3.0964,3.0974,3.0977,3.0977,3.0981,3.0982,3.0983,3.0983,3.0983,3.0986,3.0985,0,0,0,0,0,0,3.0928,3.0931,3.0946,3.0947,3.094,3.0951,3.0953,3.0956,3.0966,3.0968,3.0964,3.0965,3.0976,3.0977,3.0978,3.0978,3.0983,3.0983,3.0983,3.0986,3.0986,3.0985,0,0,0,0,0,0,3.0928,3.0929,3.0945,3.0939,3.0941,3.0951,3.0955,3.0956,3.0959,3.0968,3.097,3.0965,3.0976,3.0977,3.098,3.0978,3.0983,3.0983,3.0986,3.0986,3.0985,3.0977,0,0,0,0,0,0,3.0927,3.0929,3.0929,3.0939,3.0941,3.0947,3.0954,3.0957,3.096,3.0961,3.0969,3.097,3.0976,3.0979,3.098,3.0979,3.0984,3.0986,3.0986,3.0986,3.0977,3.0976,3.0975,0,0,0,0,0,3.0926,3.0924,3.0928,3.093,3.0941,3.0947,3.0948,3.0956,3.096,3.0959,3.0965,3.097,3.0978,3.0979,3.098,3.0979,3.0986,3.0986,3.0986,3.0977,3.0976,3.0975,0,0,0,0,0,0,3.0912,3.0926,3.093,3.0932,3.0938,3.0949,3.0948,3.0954,3.0959,3.096,3.0968,3.097,3.0972,3.0976,3.0976,3.0979,3.0983,3.0983,3.0976,3.0975,3.0975,3.0974,3.0984,0,0,0,0,0,3.0909,3.0913,3.0925,3.0925,3.0928,3.0938,3.094,3.0946,3.0953,3.0955,3.0961,3.0967,3.0971,3.0973,3.0977,3.0978,3.098,3.0978,3.0977,3.0976,3.0976,3.0978,3.0978,3.0984,3.0984,3.0985,0,0,3.0902,3.0911,3.0912,3.0922,3.0928,3.0932,3.094,3.0943,3.0946,3.0955,3.0959,3.0964,3.0971,3.0973,3.0974,3.0976,3.0975,3.0976,3.0975,3.0975,3.0978,3.0977,3.0977,3.0984,3.0984,3.0984,0,0,3.0893,3.09,3.0901,3.0908,3.0917,3.0924,3.0925,3.0935,3.0939,3.0943,3.0951,3.0954,3.0961,3.0966,3.0969,3.0965,3.097,3.0966,3.0962,3.0964,3.0963,3.0963,3.0963,3.0962,3.0966,3.0966,3.0966,0,3.0884,3.0891,3.0901,3.0905,3.091,3.092,3.0922,3.0928,3.0937,3.094,3.0943,3.0953,3.0958,3.0962,3.0962,3.0964,3.0965,3.0965,3.0963,3.0962,3.0962,3.0962,3.0962,3.0966,3.0966,3.0966,3.0966,0,3.088,3.0885,3.0885,3.0897,3.0901,3.0904,3.0915,3.0918,3.0924,3.0931,3.0935,3.0942,3.0949,3.0951,3.0955,3.0956,3.0958,3.0961,3.0965,3.0961,3.0961,3.0961,3.0965,3.0965,3.0965,3.0965,0,0,3.086,3.0879,3.0879,3.0886,3.0898,3.0902,3.0905,3.0914,3.0917,3.0924,3.0928,3.0934,3.0939,3.0943,3.0949,3.095,3.0949,3.0954,3.0955,3.0954,3.0952,3.0949,3.0949,3.0952,3.0952,3.0952,3.0951,0,3.0854,3.0863,3.0873,3.0878,3.0884,3.0895,3.0898,3.0906,3.0913,3.0919,3.0926,3.0931,3.0936,3.0939,3.0941,3.0948,3.0948,3.0949,3.0956,3.0956,3.0955,3.0949,3.0945,3.0944,3.0951,3.0951,3.0951,0,3.0847,3.0855,3.0862,3.0876,3.0878,3.0881,3.0891,3.0896,3.0906,3.0911,3.0917,3.0924,3.0929,3.0933,3.094,3.094,3.0944,3.0948,3.0949,3.095,3.0954,3.095,3.0944,3.0944,3.0951,3.0951,3.0951,0,3.0834,3.0846,3.0852,3.0857,3.0873,3.0876,3.0882,3.0892,3.0897,3.0905,3.0909,3.0917,3.0921,3.0927,3.0937,3.0938,3.0944,3.0948,3.0948,3.0948,3.0949,3.0948,3.0943,3.095,3.095,3.095,3.095,0,3.0825,3.0829,3.0847,3.0851,3.0856,3.0868,3.0872,3.0879,3.0889,3.0894,3.0904,3.0908,3.092,3.0926,3.0934,3.094,3.0941,3.0945,3.0947,3.0945,3.0945,3.0948,3.0948,3.095,3.095,3.095,3.095,0,3.0811,3.0823,3.0831,3.0847,3.0851,3.0854,3.0867,3.0871,3.088,3.0886,3.0889,3.0901,3.091,3.092,3.093,3.0935,3.0941,3.0943,3.0938,3.0939,3.0939,3.094,3.0936,3.0937,3.0943,3.0943,3.0943,0,3.0805,3.0809,3.0826,3.0831,3.0838,3.0846,3.0852,3.0864,3.087,3.0883,3.0885,3.0895,3.0903,3.0915,3.0925,3.0934,3.0937,3.0935,3.0938,3.0936,3.0938,3.0938,3.0939,3.0934,3.0934,3.0934,3.0934,0,3.0794,3.0801,3.081,3.0821,3.0829,3.0838,3.0847,3.0851,3.0865,3.0871,3.0881,3.0887,3.09,3.0909,3.0919,3.0926,3.0933,3.0933,3.0934,3.0932,3.0929,3.0932,3.0937,3.0933,3.0933,3.0933,3.0933,3.0934,3.0785,3.0789,3.0803,3.0813,3.0822,3.0831,3.0837,3.0847,3.0855,3.0867,3.0874,3.0884,3.0895,3.091,3.0917,3.0924,3.0926,3.0927,3.0927,3.0927,3.0927,3.0928,3.0926,3.0926,3.0926,3.0926,3.0926,0,3.0775,3.0785,3.0794,3.0809,3.0817,3.0824,3.0836,3.0842,3.0851,3.0861,3.087,3.0882,3.0891,3.0903,3.0913,3.0917,3.0921,3.092,3.092,3.0921,3.0924,3.0923,3.0917,3.0917,3.0917,3.0917,3.0917,3.0917,3.0771,3.078,3.0788,3.0802,3.0811,3.0822,3.0828,3.0837,3.0846,3.0859,3.0868,3.0876,3.0887,3.0899,3.0909,3.0912,3.0916,3.0914,3.0918,3.092,3.0921,3.0922,3.0921,3.0914,3.0914,3.0915,3.0915,3.0915]}]]